Hourly Data Report for April 13, 2021

MIRAMICHI RCS
NEW BRUNSWICK
Current Station Operator: ECCC - MSC

47°00'34.000" N
65°27'54.000" W
33.00 m
8100989
71744
ACQ

Download Data

Hourly Data (April 2021)
Hourly Data Report for April 13, 2021
TIME
LST
Temp Definition
°C
Dew Point Definition
°C
Rel Hum Definition
%
Precip. Amount Definition
mm

Wind Dir Definition
10's deg

Wind Spd Definition
km/h
Visibility Definition
km
Stn Press Definition
kPa
Hmdx Definition


Wind Chill Definition


Weather Definition


00:00 7.7 1.6 66 LegendMM 5 33   101.24     LegendNANA
01:00 5.8 3.4 85 LegendMM 4 18   101.24     LegendNANA
02:00 5.4 3.3 86 LegendMM 3 14   101.22     LegendNANA
03:00 4.8 3.4 91 LegendMM 4 20   101.25     LegendNANA
04:00 4.2 3.2 93 LegendMM 3 14   101.27     LegendNANA
05:00 4.0 2.3 89 LegendMM 3 18   101.32     LegendNANA
06:00 3.4 2.2 91 LegendMM 4 17   101.38     LegendNANA
07:00 3.3 2.0 91 LegendMM 4 16   101.44     LegendNANA
08:00 3.5 1.6 88 LegendMM 4 20   101.50     LegendNANA
09:00 4.3 1.7 83 LegendMM 5 18   101.55     LegendNANA
10:00 5.0 0.9 75 LegendMM 4 22   101.58     LegendNANA
11:00 5.5 0.5 70 LegendMM 3 19   101.59     LegendNANA
12:00 6.1 0.4 67 LegendMM 4 22   101.59     LegendNANA
13:00 6.5 0.1 64 LegendMM 4 22   101.60     LegendNANA
14:00 6.1 -0.6 62 LegendMM 6 27   101.61     LegendNANA
15:00 5.2 -2.0 60 LegendMM 6 39   101.58     LegendNANA
16:00 5.1 -2.0 60 LegendMM 6 29   101.58     LegendNANA
17:00 5.2 -2.7 57 LegendMM 6 27   101.57     LegendNANA
18:00 4.7 -3.3 56 LegendMM 5 26   101.61     LegendNANA
19:00 4.0 -2.9 60 LegendMM 4 18   101.62     LegendNANA
20:00 3.3 -2.5 66 LegendMM 4 14   101.61     LegendNANA
21:00 2.5 -2.6 69 LegendMM 3 9   101.59     LegendNANA
22:00 2.0 -2.7 71 LegendMM 1 8   101.57     LegendNANA
23:00 2.2 -2.8 69 LegendMM 2 10   101.56     LegendNANA

Notes on Data Quality.

Legend

  • E = Estimated
  • M = Missing
  • NA = Not Available*
  • [empty] = Indicates an unobserved value
Date modified: